Price, UT

6:37 AM MST on January 20, 2017 (GMT -0700)
Carbon County

Weather History for KPUC - October, 2012

Change the Weather History Date:

Friday, October 19, 2012

  Actual Average Record
Temperature  
Mean Temperature 50 °F -  
Max Temperature 66 °F 58 °F 82 °F (1974)
Min Temperature 35 °F 34 °F 22 °F (1984)
Degree Days  
Heating Degree Days 14    
Moisture  
Dew Point 18 °F    
Average Humidity 30    
Maximum Humidity 48    
Minimum Humidity 15    
Precipitation  
Precipitation 0.00 in - - ()
Sea Level Pressure  
Sea Level Pressure 30.08 in    
Wind  
Wind Speed 4 mph (NE)    
Max Wind Speed 10 mph    
Max Gust Speed -    
Visibility 10 miles    
Events      
Averages and records for this station are not official NWS values.
T = Trace of Precipitation, MM = Missing Value Source: NWS Daily Summary

Daily Weather History Graph

Daily Weather History Graph

Search for Another Location

Airport or City:

Trip Planner

Search our weather history database for the weather conditions in past years. The results will help you decide how hot, cold, wet, or windy it might be!

Date:

Astronomy

Oct. 19, 2012 Rise Set
Actual Time 7:37 AM MDT 6:37 PM MDT
Civil Twilight 7:10 AM MDT 7:04 PM MDT
Nautical Twilight 6:39 AM MDT 7:35 PM MDT
Astronomical Twilight 6:07 AM MDT 8:06 PM MDT
Moon 12:23 PM MDT (10/19) 10:20 PM MDT (10/19)
Length of Visible Light 11h 53m
Length of Day
10h 59m
Waxing Crescent, 24% of the Moon is Illuminated
Oct 19
Waxing Crescent
Oct 21
First Quarter
Oct 29
Full
Nov 6
Last Quarter
Nov 13
New

Hourly Weather History & Observations

Time (MDT) Temp. Windchill Dew Point Humidity Pressure Visibility Wind Dir Wind Speed Gust Speed Precip Events Conditions
12:53 AM 41.0 °F - 17.1 °F 38% 30.15 in 10.0 mi Calm Calm - N/A   Clear
1:53 AM 41.0 °F 35.2 °F 18.0 °F 40% 30.14 in 10.0 mi NNE 9.2 mph - N/A   Clear
2:53 AM 41.0 °F 37.1 °F 18.0 °F 40% 30.12 in 10.0 mi NNE 5.8 mph - N/A   Clear
3:53 AM 37.9 °F 35.5 °F 18.0 °F 45% 30.12 in 10.0 mi ENE 3.5 mph - N/A   Clear
4:53 AM 39.0 °F 34.8 °F 18.0 °F 43% 30.11 in 10.0 mi North 5.8 mph - N/A   Clear
5:53 AM 37.9 °F 33.5 °F 18.0 °F 45% 30.12 in 10.0 mi ENE 5.8 mph - N/A   Clear
6:53 AM 35.1 °F - 17.1 °F 48% 30.16 in 10.0 mi Calm Calm - N/A   Clear
7:53 AM 36.0 °F 32.1 °F 18.0 °F 48% 30.17 in 10.0 mi NNE 4.6 mph - N/A   Clear
8:53 AM 46.9 °F - 19.0 °F 33% 30.17 in 10.0 mi Calm Calm - N/A   Clear
9:53 AM 48.9 °F - 19.9 °F 32% 30.19 in 10.0 mi WSW 3.5 mph - N/A   Clear
10:53 AM 55.9 °F - 19.0 °F 24% 30.15 in 10.0 mi SE 5.8 mph - N/A   Clear
11:53 AM 57.9 °F - 18.0 °F 21% 30.14 in 10.0 mi SSE 4.6 mph - N/A   Clear
12:53 PM 60.1 °F - 16.0 °F 18% 30.12 in 10.0 mi Variable 3.5 mph - N/A   Clear
1:53 PM 63.0 °F - 16.0 °F 16% 30.06 in 10.0 mi Calm Calm - N/A   Clear
2:53 PM 66.0 °F - 17.1 °F 15% 30.02 in 10.0 mi Calm Calm - N/A   Clear
3:53 PM 66.9 °F - 17.1 °F 15% 30.01 in 10.0 mi Variable 3.5 mph - N/A   Clear
4:53 PM 66.0 °F - 17.1 °F 15% 29.99 in 10.0 mi South 5.8 mph - N/A   Clear
5:53 PM 64.0 °F - 17.1 °F 16% 30.00 in 10.0 mi South 4.6 mph - N/A   Clear
6:53 PM 62.1 °F - 17.1 °F 18% 30.02 in 10.0 mi Calm Calm - N/A   Clear
7:53 PM 53.1 °F - 19.0 °F 26% 30.05 in 10.0 mi NNE 9.2 mph - N/A   Clear
8:53 PM 50.0 °F - 19.0 °F 29% 30.02 in 10.0 mi NNE 8.1 mph - N/A   Clear
9:53 PM 48.0 °F - 19.0 °F 32% 30.02 in 10.0 mi North 9.2 mph - N/A   Clear
10:53 PM 46.9 °F - 19.0 °F 33% 29.98 in 10.0 mi NNE 10.4 mph - N/A   Clear
11:53 PM 46.9 °F - 19.0 °F 33% 29.96 in 10.0 mi NNE 9.2 mph - N/A   Clear